Starlink 11583

operational
NORAD ID: 62991 Int'l Des: 2025-031 Owner: SPXS Country: US Constellation: starlink
LEOCIRCULAR

About Starlink 11583

Description loading...

Live Position

Loading 3D Globe...

Upcoming Passes

Altitude History

Altitude vs Time

uPlot chart will show altitude changes over time

Two-Line Element Set

1 62991U 25031L 26034.82581143 .00209410 00000-0 15901-2 0 9999
2 62991 43.0017 205.8310 0003250 273.7278 86.3219 15.70906361 57424
Epoch: Feb 3, 2026 • Age: 20 hours

Current Status

Altitude 359.7 km
Velocity 7.70 km/s
Sub-Earth Point 40.38°N, 108.34°W
Launch Date Feb 11, 2025
Age 0.9 years
Type internet

Technical Details

Classification Payload
Mass 960.00 kg
Dry Mass 910.00 kg
Total Mass 960.00 kg
Length 0.30 m
Diameter 4.10 m
Span 29.00 m
Shape Box + pan
Manufacturer SPXS
Bus Type Starlink V2MD
Phase Status In Orbit
Owner/State SPXS/US

Large Constellations

Loading constellations...